Satellite: AUBIESAT Catalog number: 37854 Epoch time: 13309.74993571 Element set: 624 Inclination: 101.7028 deg RA of node: 230.1892 deg Eccentricity: 0.0229912 Arg of perigee: 339.5145 deg Mean anomaly: 047.2283 deg Mean motion: 14.85908338 rev/day Decay rate: 1.5874e-04 rev/day^2 Epoch rev: 10947 Checksum: 327
Satellite: HRBE Catalog number: 37855 Epoch time: 13311.00796534 Element set: 632 Inclination: 101.7026 deg RA of node: 231.6800 deg Eccentricity: 0.0231086 Arg of perigee: 336.5993 deg Mean anomaly: 084.1913 deg Mean motion: 14.85512818 rev/day Decay rate: 1.4935e-04 rev/day^2 Epoch rev: 10964 Checksum: 295
Satellite: RS-39 Catalog number: 38051 Epoch time: 13311.33874192 Element set: 950 Inclination: 051.6356 deg RA of node: 237.5670 deg Eccentricity: 0.0011545 Arg of perigee: 071.6396 deg Mean anomaly: 074.5590 deg Mean motion: 15.37281662 rev/day Decay rate: 3.3817e-04 rev/day^2 Epoch rev: 9976 Checksum: 325
Satellite: E-STAR Catalog number: 38079 Epoch time: 13311.70401612 Element set: 587 Inclination: 069.4686 deg RA of node: 194.4959 deg Eccentricity: 0.0547874 Arg of perigee: 304.8439 deg Mean anomaly: 081.4593 deg Mean motion: 14.63649936 rev/day Decay rate: 7.5907e-04 rev/day^2 Epoch rev: 9060 Checksum: 355
Satellite: GOLIAT Catalog number: 38085 Epoch time: 13311.67314869 Element set: 523 Inclination: 069.4704 deg RA of node: 198.0620 deg Eccentricity: 0.0560388 Arg of perigee: 306.6535 deg Mean anomaly: 048.4417 deg Mean motion: 14.60753007 rev/day Decay rate: 7.2447e-04 rev/day^2 Epoch rev: 9050 Checksum: 307
Satellite: HORYU-2 Catalog number: 38340 Epoch time: 13310.93752388 Element set: 662 Inclination: 098.2332 deg RA of node: 259.9745 deg Eccentricity: 0.0012513 Arg of perigee: 154.8447 deg Mean anomaly: 205.3345 deg Mean motion: 14.71332853 rev/day Decay rate: 2.404e-05 rev/day^2 Epoch rev: 7910 Checksum: 295
Satellite: RS-40 Catalog number: 38736 Epoch time: 13311.11787403 Element set: 418 Inclination: 082.4789 deg RA of node: 066.0042 deg Eccentricity: 0.0021430 Arg of perigee: 016.9400 deg Mean anomaly: 343.2393 deg Mean motion: 12.42872892 rev/day Decay rate: 1.0e-07 rev/day^2 Epoch rev: 5800 Checksum: 267
Satellite: PROITERES Catalog number: 38756 Epoch time: 13311.45410849 Element set: 278 Inclination: 098.2439 deg RA of node: 031.0612 deg Eccentricity: 0.0013070 Arg of perigee: 016.2599 deg Mean anomaly: 343.9019 deg Mean motion: 14.74414740 rev/day Decay rate: 1.123e-05 rev/day^2 Epoch rev: 6250 Checksum: 274
Satellite: RAIKO Catalog number: 38852 Epoch time: 13218.07382584 Element set: 340 Inclination: 051.6160 deg RA of node: 184.0336 deg Eccentricity: 0.0004489 Arg of perigee: 261.9162 deg Mean anomaly: 100.6538 deg Mean motion: 16.48474690 rev/day Decay rate: 2.4681979e-01 rev/day^2 Epoch rev: 4784 Checksum: 326
Satellite: BEESAT-3 Catalog number: 39134 Epoch time: 13311.80875156 Element set: 416 Inclination: 064.8765 deg RA of node: 117.1805 deg Eccentricity: 0.0005010 Arg of perigee: 324.8944 deg Mean anomaly: 035.2349 deg Mean motion: 15.01474493 rev/day Decay rate: 6.896e-05 rev/day^2 Epoch rev: 3038 Checksum: 298
Satellite: BEESAT-2 Catalog number: 39136 Epoch time: 13311.08373013 Element set: 403 Inclination: 064.8685 deg RA of node: 119.5151 deg Eccentricity: 0.0004238 Arg of perigee: 323.6683 deg Mean anomaly: 036.4147 deg Mean motion: 15.01313279 rev/day Decay rate: 6.178e-05 rev/day^2 Epoch rev: 3027 Checksum: 273
/EX